Location: Clanezzo
(45.7500°N, 9.6000°E)
Time: 08:53:27
(UTC+00:00)

Gbstr 26 Del rocket - Pass Details

Date: 28 September 2021
Orbit: 492 x 1263 km, 51.8° (Epoch: 18 October)

Event Time Altitude Azimuth Distance (km) Brightness Sun altitude
Rises 22:49:47 0° 286° (WNW) 4,136 7.5 -46.4°
Reaches altitude 10° 22:52:38 10° 291° (WNW) 3,215 6.9 -46.4°
Enters shadow 22:53:26 13° 292° (WNW) 2,967 6.7 -46.5°
